Time[GMT],current_speed[cm/s](2m),current_direction[angular_degrees](2m),temperature[C](2m),current_u[cm/s](2m),current_v[cm/s](2m)
2005-05-18 04:00,28.74,144.2,6.11,16.80,-23.32
2005-05-18 05:00,16.72,124.5,6.05,13.77,-9.48
2005-05-18 06:00,16.72,97.8,6.05,16.56,-2.28
2005-05-18 07:00,17.30,59.5,6.11,14.91,8.78
2005-05-18 08:00,18.48,52.1,6.18,14.58,11.35
2005-05-18 09:00,17.60,54.2,6.08,14.28,10.29
2005-05-18 10:00,11.15,69.3,6.05,10.43,3.93
2005-05-18 11:00,18.18,134.7,6.05,12.92,-12.80
2005-05-18 12:00,26.10,146.0,6.08,14.60,-21.64
2005-05-18 13:00,39.89,147.4,6.08,21.49,-33.60
2005-05-18 14:00,45.17,150.2,6.11,22.44,-39.20
2005-05-18 15:00,46.63,147.8,6.24,24.88,-39.44
2005-05-18 16:00,38.13,139.7,6.11,24.68,-29.06
2005-05-18 17:00,34.32,134.7,6.53,24.37,-24.16
2005-05-18 18:00,32.26,131.2,6.50,24.27,-21.26
2005-05-18 19:00,16.42,135.8,6.40,11.45,-11.77
2005-05-18 20:00,10.56,135.8,6.27,7.36,-7.57
2005-05-18 21:00,3.23,38.1,6.37,1.99,2.54
2005-05-18 22:00,7.63,21.2,6.53,2.75,7.11
2005-05-18 23:00,4.99,96.8,6.43,4.95,-0.59
2005-05-19 00:00,17.60,139.0,6.43,11.55,-13.27
2005-05-19 01:00,20.24,142.5,6.21,12.33,-16.05
2005-05-19 02:00,28.16,141.8,6.34,17.42,-22.12
2005-05-19 03:00,31.38,131.2,6.43,23.60,-20.68
2005-05-19 04:00,29.33,126.7,6.46,23.53,-17.51
2005-05-19 05:00,30.50,111.2,6.53,28.44,-11.02
2005-05-19 06:00,32.26,107.7,6.40,30.74,-9.79
2005-05-19 07:00,25.22,82.7,6.37,25.02,3.20
2005-05-19 08:00,25.81,86.6,6.30,25.76,1.54
2005-05-19 09:00,25.22,83.4,6.21,25.06,2.90
2005-05-19 10:00,18.18,65.1,6.43,16.50,7.65
2005-05-19 11:00,12.03,76.7,6.40,11.70,2.76
2005-05-19 12:00,15.25,104.5,6.40,14.77,-3.82
2005-05-19 13:00,25.81,155.8,6.40,10.56,-23.55
2005-05-19 14:00,30.21,152.3,6.24,14.03,-26.75
2005-05-19 15:00,39.60,158.7,6.50,14.41,-36.88
2005-05-19 16:00,35.49,142.8,6.37,21.44,-28.28
2005-05-19 17:00,31.97,144.2,6.40,18.68,-25.94
2005-05-19 18:00,25.52,128.4,6.30,19.99,-15.85
2005-05-19 19:00,11.15,121.0,6.62,9.55,-5.75
2005-05-19 20:00,14.08,80.9,6.69,13.90,2.21
2005-05-19 21:00,21.12,37.7,6.72,12.91,16.71
2005-05-19 22:00,20.24,34.9,6.98,11.58,16.60
2005-05-19 23:00,20.24,26.8,6.72,9.13,18.06
2005-05-20 00:00,14.66,72.9,7.04,14.01,4.32
2005-05-20 01:00,22.88,109.8,6.98,21.53,-7.74
2005-05-20 02:00,29.92,139.3,6.85,19.50,-22.69
2005-05-20 03:00,41.94,143.9,6.53,24.72,-33.88
2005-05-20 04:00,44.29,139.7,6.69,28.67,-33.76
2005-05-20 05:00,43.41,139.7,6.56,28.10,-33.09
2005-05-20 06:00,32.85,129.5,6.72,25.36,-20.88
2005-05-20 07:00,22.88,125.6,6.91,18.60,-13.32
2005-05-20 08:00,17.01,98.5,6.98,16.82,-2.52
2005-05-20 09:00,16.72,86.9,6.75,16.69,0.90
2005-05-20 10:00,16.72,61.3,6.78,14.66,8.04
2005-05-20 11:00,13.49,24.3,6.62,5.56,12.29
2005-05-20 12:00,12.91,62.3,6.40,11.43,6.00
2005-05-20 13:00,17.01,66.9,6.34,15.65,6.68
2005-05-20 14:00,21.41,132.6,6.34,15.75,-14.50
2005-05-20 15:00,28.45,137.2,6.05,19.33,-20.88
2005-05-20 16:00,39.30,131.9,6.94,29.24,-26.26
2005-05-20 17:00,39.60,146.3,7.13,21.94,-32.96
2005-05-20 18:00,32.85,144.2,6.91,19.20,-26.66
2005-05-20 19:00,17.30,155.5,8.09,7.18,-15.75
2005-05-20 20:00,11.73,112.2,8.18,10.86,-4.44
2005-05-20 21:00,13.20,41.6,7.42,8.76,9.87
2005-05-20 22:00,29.04,43.3,8.78,19.92,21.12
2005-05-20 23:00,38.13,51.4,8.97,29.80,23.78
2005-05-21 00:00,29.04,74.6,8.21,28.00,7.70
2005-05-21 01:00,22.58,92.6,7.04,22.56,-1.01
2005-05-21 02:00,26.69,138.3,7.48,17.77,-19.92
2005-05-21 03:00,38.72,148.5,8.12,20.25,-32.99
2005-05-21 04:00,33.44,145.3,6.82,19.04,-27.49
2005-05-21 05:00,33.44,139.7,6.94,21.64,-25.49
2005-05-21 06:00,28.74,133.0,7.42,21.03,-19.60
2005-05-21 07:00,16.72,160.8,7.77,5.51,-15.78
2005-05-21 08:00,14.96,158.7,7.55,5.45,-13.93
2005-05-21 09:00,3.23,245.8,7.61,-2.94,-1.32
2005-05-21 10:00,14.37,335.5,7.58,-5.96,13.08
2005-05-21 11:00,6.16,25.0,7.48,2.61,5.58
2005-05-21 12:00,17.60,287.7,7.58,-16.77,5.35
2005-05-21 13:00,12.61,288.0,7.29,-11.99,3.91
2005-05-21 14:00,10.85,264.5,7.23,-10.80,-1.04
2005-05-21 15:00,23.46,199.8,7.10,-7.94,-22.08
2005-05-21 16:00,28.74,195.6,6.91,-7.71,-27.69
2005-05-21 17:00,34.32,191.0,6.85,-6.55,-33.69
2005-05-21 18:00,13.49,211.7,6.85,-7.10,-11.47
2005-05-21 19:00,20.82,240.6,6.78,-18.14,-10.23
2005-05-21 20:00,14.96,269.4,6.78,-14.96,-0.16
2005-05-21 21:00,7.33,289.8,6.78,-6.90,2.48
2005-05-21 22:00,11.15,326.0,6.53,-6.23,9.24
2005-05-21 23:00,21.41,293.3,6.53,-19.66,8.47
2005-05-22 00:00,23.46,292.3,6.56,-21.72,8.89
2005-05-22 01:00,11.44,264.8,6.40,-11.39,-1.03
2005-05-22 02:00,24.64,223.7,6.30,-17.02,-17.81
2005-05-22 03:00,47.51,215.6,6.14,-27.67,-38.63
2005-05-22 04:00,49.57,218.4,6.27,-30.80,-38.83
2005-05-22 05:00,49.27,207.5,5.92,-22.77,-43.70
2005-05-22 06:00,46.05,228.6,5.47,-34.55,-30.44
2005-05-22 07:00,26.98,238.5,5.24,-23.00,-14.11
2005-05-22 08:00,24.05,240.9,5.24,-21.02,-11.69
2005-05-22 09:00,19.94,302.1,5.47,-16.89,10.60
2005-05-22 10:00,27.57,332.7,6.11,-12.65,24.50
2005-05-22 11:00,41.36,350.9,5.92,-6.51,40.84
2005-05-22 12:00,31.68,3.6,5.79,1.99,31.61
2005-05-22 13:00,24.34,47.5,5.82,17.96,16.43
2005-05-22 14:00,8.51,121.4,5.92,7.26,-4.43
2005-05-22 15:00,21.12,142.5,5.92,12.86,-16.75
2005-05-22 16:00,25.52,134.0,5.86,18.34,-17.74
2005-05-22 17:00,33.14,155.8,5.79,13.57,-30.24
2005-05-22 18:00,35.49,162.2,5.73,10.87,-33.78
2005-05-22 19:00,35.49,165.0,5.86,9.20,-34.28
2005-05-22 20:00,28.74,187.1,5.60,-3.57,-28.52
2005-05-22 21:00,19.65,198.7,5.47,-6.31,-18.61
2005-05-22 22:00,12.91,270.1,5.41,-12.91,0.02
2005-05-22 23:00,19.65,301.4,5.47,-16.77,10.24
2005-05-23 00:00,24.93,308.4,5.57,-19.53,15.50
2005-05-23 01:00,18.77,325.3,5.82,-10.68,15.43
2005-05-23 02:00,4.69,319.7,5.86,-3.04,3.58
2005-05-23 03:00,9.68,321.8,5.82,-5.99,7.61
2005-05-23 04:00,19.06,183.3,5.86,-1.09,-19.03
2005-05-23 05:00,16.72,179.0,5.60,0.28,-16.72
2005-05-23 06:00,25.22,153.7,5.44,11.16,-22.62
2005-05-23 07:00,23.17,152.0,5.47,10.89,-20.45
2005-05-23 08:00,23.76,136.9,5.47,16.25,-17.33
2005-05-23 09:00,19.65,114.7,5.47,17.85,-8.21
2005-05-23 10:00,22.88,114.0,5.47,20.90,-9.30
2005-05-23 11:00,6.75,81.7,5.47,6.67,0.98
2005-05-23 12:00,10.56,197.0,5.47,-3.08,-10.10
2005-05-23 13:00,25.52,244.4,5.47,-23.02,-11.01
2005-05-23 14:00,30.50,225.5,5.47,-21.74,-21.40
2005-05-23 15:00,41.36,217.4,5.44,-25.10,-32.87
2005-05-23 16:00,53.67,223.3,5.44,-36.84,-39.03
2005-05-23 17:00,60.71,225.8,5.47,-43.53,-42.32
2005-05-23 18:00,60.42,225.8,5.47,-43.32,-42.12
2005-05-23 19:00,46.05,225.8,5.44,-33.02,-32.10
2005-05-23 20:00,38.72,239.2,5.44,-33.24,-19.84
2005-05-23 21:00,25.22,262.7,5.44,-25.02,-3.19
2005-05-23 22:00,41.36,300.3,5.37,-35.69,20.89
2005-05-23 23:00,58.95,324.3,5.37,-34.44,47.85
2005-05-24 00:00,60.42,341.8,5.34,-18.84,57.41
2005-05-24 01:00,56.90,0.4,5.66,0.43,56.90
2005-05-24 02:00,34.32,21.5,5.86,12.59,31.92
2005-05-24 03:00,16.42,53.5,5.92,13.21,9.76
2005-05-24 04:00,19.06,152.3,5.86,8.86,-16.88
2005-05-24 05:00,27.57,144.6,5.79,15.98,-22.47
2005-05-24 06:00,41.36,169.2,5.69,7.75,-40.62
2005-05-24 07:00,50.15,162.9,5.53,14.77,-47.93
2005-05-24 08:00,54.85,176.6,5.28,3.27,-54.75
2005-05-24 09:00,54.85,181.5,5.28,-1.44,-54.83
2005-05-24 10:00,30.80,204.0,5.28,-12.53,-28.13
2005-05-24 11:00,21.12,224.0,5.24,-14.68,-15.18
2005-05-24 12:00,30.80,268.0,5.24,-30.78,-1.08
2005-05-24 13:00,23.46,282.1,5.28,-22.95,4.90
2005-05-24 14:00,31.97,287.0,5.31,-30.58,9.34
2005-05-24 15:00,24.93,277.5,5.31,-24.72,3.25
2005-05-24 16:00,20.82,281.0,5.28,-20.44,3.98
2005-05-24 17:00,17.01,216.3,5.28,-10.07,-13.71
2005-05-24 18:00,26.10,171.0,5.28,4.10,-25.78
2005-05-24 19:00,25.52,168.8,5.31,4.94,-25.04
2005-05-24 20:00,33.44,163.2,5.34,9.65,-32.01
2005-05-24 21:00,31.09,165.7,5.34,7.69,-30.12
2005-05-24 22:00,21.41,154.1,5.31,9.36,-19.26
2005-05-24 23:00,11.15,147.4,5.28,6.00,-9.39
2005-05-25 00:00,17.30,107.3,5.28,16.52,-5.15
2005-05-25 01:00,15.25,191.4,5.28,-3.00,-14.95
2005-05-25 02:00,7.33,230.0,5.28,-5.62,-4.71
2005-05-25 03:00,33.44,208.2,5.28,-15.81,-29.46
2005-05-25 04:00,40.48,219.8,5.28,-25.92,-31.08
2005-05-25 05:00,47.22,220.9,5.28,-30.91,-35.70
2005-05-25 06:00,49.86,215.6,5.28,-29.03,-40.54
2005-05-25 07:00,47.51,219.8,5.31,-30.43,-36.49
2005-05-25 08:00,48.10,208.9,5.31,-23.27,-42.10
2005-05-25 09:00,37.54,213.9,5.34,-20.91,-31.18
2005-05-25 10:00,19.65,235.3,5.37,-16.16,-11.19
2005-05-25 11:00,11.44,303.2,5.34,-9.58,6.26
2005-05-25 12:00,30.21,339.7,5.41,-10.47,28.34
2005-05-25 13:00,30.50,14.1,5.34,7.45,29.58
2005-05-25 14:00,41.06,23.3,5.28,16.23,37.72
2005-05-25 15:00,35.20,41.9,5.41,23.51,26.19
2005-05-25 16:00,24.05,114.7,5.47,21.85,-10.05
2005-05-25 17:00,40.77,148.5,5.41,21.33,-34.74
2005-05-25 18:00,52.21,156.5,5.24,20.78,-47.89
2005-05-25 19:00,65.70,174.1,5.21,6.73,-65.35
2005-05-25 20:00,73.91,177.3,5.08,3.50,-73.83
2005-05-25 21:00,63.94,190.6,5.11,-11.81,-62.84
2005-05-25 22:00,46.93,202.2,5.15,-17.77,-43.43
2005-05-25 23:00,28.45,220.5,5.21,-18.49,-21.62
2005-05-26 00:00,28.74,299.6,5.24,-24.98,14.22
2005-05-26 01:00,35.20,310.2,5.24,-26.89,22.71
2005-05-26 02:00,52.79,328.8,5.24,-27.33,45.17
2005-05-26 03:00,46.05,340.8,5.21,-15.16,43.48
2005-05-26 04:00,28.74,329.5,5.31,-14.58,24.77
2005-05-26 05:00,14.08,345.3,5.31,-3.57,13.62
2005-05-26 06:00,10.27,157.9,5.31,3.85,-9.51
2005-05-26 07:00,17.01,147.4,5.34,9.17,-14.33
2005-05-26 08:00,37.25,135.8,5.24,25.97,-26.70
2005-05-26 09:00,48.10,139.3,5.21,31.36,-36.47
2005-05-26 10:00,51.91,140.4,5.18,33.11,-39.98
2005-05-26 11:00,38.72,134.4,5.11,27.67,-27.08
2005-05-26 12:00,37.84,137.9,5.15,25.36,-28.08
2005-05-26 13:00,29.04,141.1,5.15,18.25,-22.59
2005-05-26 14:00,9.97,180.8,5.15,-0.14,-9.97
2005-05-26 15:00,16.72,225.5,5.15,-11.92,-11.73
2005-05-26 16:00,21.41,236.4,5.15,-17.82,-11.86
2005-05-26 17:00,29.62,238.8,5.15,-25.34,-15.34
2005-05-26 18:00,34.61,231.4,5.15,-27.06,-21.58
2005-05-26 19:00,22.88,249.0,5.11,-21.36,-8.19
2005-05-26 20:00,31.97,219.8,5.15,-20.48,-24.55
2005-05-26 21:00,22.29,206.1,5.15,-9.81,-20.01
2005-05-26 22:00,9.39,201.5,5.15,-3.45,-8.73
2005-05-26 23:00,15.84,35.6,5.15,9.22,12.88
2005-05-27 00:00,31.09,29.3,5.15,15.20,27.12
2005-05-27 01:00,39.60,49.3,5.18,30.02,25.82
2005-05-27 02:00,57.49,35.9,5.44,33.74,46.54
2005-05-27 03:00,55.14,44.4,5.60,38.57,39.41
2005-05-27 04:00,37.54,71.1,5.76,35.52,12.16
2005-05-27 05:00,34.32,115.1,5.66,31.09,-14.53
2005-05-27 06:00,41.06,149.5,5.60,20.83,-35.38
2005-05-27 07:00,44.87,162.5,5.53,13.48,-42.80
2005-05-27 08:00,50.45,172.4,5.28,6.70,-50.00
2005-05-27 09:00,57.78,177.3,5.34,2.74,-57.72
2005-05-27 10:00,57.49,176.2,5.37,3.78,-57.36
2005-05-27 11:00,37.54,174.1,5.41,3.84,-37.35
2005-05-27 12:00,21.41,185.7,5.41,-2.14,-21.30
2005-05-27 13:00,9.39,251.5,5.47,-8.90,-2.98
2005-05-27 14:00,19.65,357.3,5.44,-0.94,19.63
2005-05-27 15:00,46.34,343.6,5.44,-13.12,44.45
2005-05-27 16:00,51.91,3.2,5.47,2.94,51.83
2005-05-27 17:00,51.91,16.3,5.66,14.53,49.84
2005-05-27 18:00,35.20,53.2,5.79,28.17,21.10
2005-05-27 19:00,35.78,103.1,5.89,34.85,-8.11
2005-05-27 20:00,42.53,123.1,5.89,35.61,-23.25
2005-05-27 21:00,55.73,137.9,5.82,37.36,-41.35
2005-05-27 22:00,66.87,149.5,5.69,33.93,-57.63
2005-05-27 23:00,66.29,145.6,5.76,37.41,-54.72
2005-05-28 00:00,62.18,150.9,5.76,30.22,-54.34
2005-05-28 01:00,51.33,152.0,5.79,24.12,-45.31
2005-05-28 02:00,35.20,150.6,5.66,17.30,-30.65
2005-05-28 03:00,16.72,173.1,5.73,2.02,-16.60
2005-05-28 04:00,16.72,260.6,5.76,-16.49,-2.73
2005-05-28 05:00,17.01,273.6,5.76,-16.98,1.08
2005-05-28 06:00,13.20,284.9,5.73,-12.76,3.39
2005-05-28 07:00,8.21,317.2,5.66,-5.58,6.03
2005-05-28 08:00,11.44,164.6,5.66,3.03,-11.03
2005-05-28 09:00,22.00,145.3,5.69,12.53,-18.08
2005-05-28 10:00,33.73,138.3,5.66,22.46,-25.17
2005-05-28 11:00,39.60,142.5,5.69,24.12,-31.40
2005-05-28 12:00,39.60,126.3,5.73,31.91,-23.44
2005-05-28 13:00,34.02,98.9,5.73,33.62,-5.25
2005-05-28 14:00,33.14,105.6,5.66,31.93,-8.89
2005-05-28 15:00,23.76,67.6,5.82,21.96,9.06
2005-05-28 16:00,34.90,38.8,5.95,21.85,27.22
2005-05-28 17:00,30.21,48.6,6.02,22.66,19.98
2005-05-28 18:00,19.65,54.2,6.11,15.94,11.49
2005-05-28 19:00,10.27,71.8,6.05,9.75,3.21
2005-05-28 20:00,14.08,124.9,6.05,11.55,-8.05
2005-05-28 21:00,35.78,149.2,6.27,18.34,-30.72
2005-05-28 22:00,39.89,152.7,6.59,18.31,-35.44
2005-05-28 23:00,34.32,149.5,6.24,17.41,-29.57
2005-05-29 00:00,32.56,136.1,6.02,22.55,-23.48
2005-05-29 01:00,29.92,121.0,6.37,25.64,-15.42
2005-05-29 02:00,23.46,91.5,5.95,23.46,-0.61
2005-05-29 03:00,18.18,52.5,5.86,14.42,11.08
2005-05-29 04:00,19.06,27.2,5.69,8.70,16.96
2005-05-29 05:00,31.38,22.6,5.98,12.05,28.98
2005-05-29 06:00,24.05,23.3,5.73,9.51,22.09
2005-05-29 07:00,15.25,37.0,6.14,9.18,12.18
2005-05-29 08:00,18.48,108.0,5.73,17.57,-5.72
2005-05-29 09:00,31.38,129.5,5.92,24.23,-19.95
2005-05-29 10:00,41.06,149.9,5.73,20.62,-35.51
2005-05-29 11:00,51.33,152.3,6.05,23.84,-45.45
2005-05-29 12:00,49.27,157.9,6.14,18.50,-45.67
2005-05-29 13:00,40.18,153.0,6.24,18.23,-35.81
2005-05-29 14:00,28.74,135.8,6.27,20.04,-20.61
2005-05-29 15:00,17.60,102.7,6.27,17.16,-3.88
2005-05-29 16:00,15.25,52.8,6.56,12.15,9.22
2005-05-29 17:00,13.79,354.8,6.72,-1.25,13.73
2005-05-29 18:00,22.58,1.5,6.75,0.59,22.58
2005-05-29 19:00,15.25,28.2,6.82,7.21,13.44
2005-05-29 20:00,15.25,359.4,6.50,-0.17,15.25
2005-05-29 21:00,11.44,66.5,6.37,10.49,4.56
2005-05-29 22:00,15.25,101.0,6.88,14.97,-2.91
2005-05-29 23:00,30.21,129.8,6.21,23.20,-19.35
2005-05-30 00:00,37.25,120.0,6.82,32.27,-18.61
2005-05-30 01:00,39.89,136.5,6.91,27.46,-28.93
2005-05-30 02:00,33.44,138.6,6.82,22.11,-25.08
2005-05-30 03:00,23.17,128.4,6.82,18.16,-14.40
2005-05-30 04:00,16.72,98.5,7.04,16.53,-2.48
2005-05-30 05:00,13.79,58.4,7.01,11.75,7.21
2005-05-30 06:00,10.56,49.0,6.82,7.96,6.93
2005-05-30 07:00,6.45,352.7,6.94,-0.82,6.40
2005-05-30 08:00,3.52,310.9,6.98,-2.66,2.30
2005-05-30 09:00,4.11,237.4,6.91,-3.46,-2.21
2005-05-30 10:00,12.61,180.5,6.91,-0.10,-12.61
2005-05-30 11:00,13.79,194.5,6.78,-3.45,-13.35
2005-05-30 12:00,18.18,172.0,7.10,2.53,-18.01
2005-05-30 13:00,22.88,129.1,6.91,17.75,-14.43
2005-05-30 14:00,21.41,133.3,6.94,15.57,-14.69
2005-05-30 15:00,20.53,60.6,7.01,17.88,10.09
2005-05-30 16:00,31.38,41.2,7.17,20.68,23.61
2005-05-30 17:00,27.28,58.8,6.62,23.33,14.13
2005-05-30 18:00,32.26,49.3,6.56,24.46,21.04
2005-05-30 19:00,28.74,61.6,7.07,25.29,13.67
2005-05-30 20:00,21.41,90.1,6.66,21.41,-0.03
2005-05-30 21:00,16.42,111.5,6.53,15.28,-6.03
2005-05-30 22:00,23.17,138.3,6.66,15.43,-17.29
2005-05-30 23:00,34.02,156.5,7.39,13.54,-31.21
2005-05-31 00:00,32.85,158.3,7.48,12.15,-30.52
2005-05-31 01:00,39.01,158.7,7.39,14.20,-36.33
2005-05-31 02:00,25.52,161.8,7.23,7.96,-24.24
2005-05-31 03:00,7.92,168.5,7.23,1.58,-7.76
2005-05-31 04:00,9.68,69.7,7.13,9.08,3.36
2005-05-31 05:00,31.09,355.5,7.10,-2.43,30.99
2005-05-31 06:00,31.09,356.6,7.42,-1.86,31.03
2005-05-31 07:00,30.50,355.9,7.20,-2.20,30.42
2005-05-31 08:00,34.61,14.1,7.07,8.46,33.56
2005-05-31 09:00,27.57,32.4,6.75,14.78,23.27
2005-05-31 10:00,17.30,62.0,6.50,15.27,8.13
2005-05-31 11:00,14.08,106.6,6.72,13.49,-4.03
2005-05-31 12:00,30.21,137.2,6.75,20.52,-22.17
2005-05-31 13:00,41.36,141.4,6.66,25.79,-32.33
2005-05-31 14:00,39.89,142.1,6.75,24.49,-31.49
2005-05-31 15:00,39.30,147.4,6.78,21.17,-33.11
2005-05-31 16:00,27.28,163.2,7.01,7.87,-26.12
2005-05-31 17:00,19.36,171.7,7.07,2.81,-19.15
2005-05-31 18:00,6.16,255.0,7.13,-5.95,-1.60
2005-05-31 19:00,14.66,336.9,7.04,-5.75,13.49
2005-05-31 20:00,24.05,353.8,6.98,-2.62,23.91
2005-05-31 21:00,16.13,7.5,7.20,2.10,15.99
2005-05-31 22:00,3.23,334.8,7.20,-1.37,2.92
2005-05-31 23:00,13.20,65.1,7.13,11.97,5.55
2005-06-01 00:00,9.68,155.8,7.23,3.96,-8.83
2005-06-01 01:00,19.36,159.7,7.26,6.71,-18.16
2005-06-01 02:00,30.80,141.1,7.13,19.35,-23.96
2005-06-01 03:00,32.56,126.7,6.98,26.12,-19.44
2005-06-01 04:00,37.25,114.3,7.07,33.94,-15.36
2005-06-01 05:00,27.28,104.2,7.33,26.45,-6.67
2005-06-01 06:00,21.41,83.8,7.33,21.28,2.33
2005-06-01 07:00,18.18,73.2,7.17,17.41,5.25
2005-06-01 08:00,8.21,62.0,7.17,7.25,3.86
2005-06-01 09:00,4.99,91.8,7.17,4.98,-0.16
2005-06-01 10:00,2.35,252.9,7.13,-2.24,-0.69
2005-06-01 11:00,1.76,207.2,7.13,-0.80,-1.57
2005-06-01 12:00,17.89,194.5,7.13,-4.48,-17.32
2005-06-01 13:00,21.70,177.6,7.07,0.89,-21.69
2005-06-01 14:00,29.04,194.2,7.26,-7.10,-28.15
2005-06-01 15:00,20.24,144.9,7.20,11.63,-16.57
2005-06-01 16:00,15.84,180.5,7.33,-0.12,-15.84
2005-06-01 17:00,12.03,77.4,7.45,11.74,2.62
2005-06-01 18:00,8.21,35.9,7.96,4.82,6.65
2005-06-01 19:00,17.89,31.0,7.64,9.22,15.33
2005-06-01 20:00,35.78,24.0,8.75,14.55,32.69
2005-06-01 21:00,28.45,42.3,8.18,19.14,21.05
2005-06-01 22:00,27.86,64.1,7.58,25.06,12.18
2005-06-01 23:00,21.70,94.7,7.93,21.63,-1.76
2005-06-02 00:00,34.32,126.7,7.55,27.53,-20.49
2005-06-02 01:00,55.14,147.8,7.74,29.42,-46.63
2005-06-02 02:00,56.61,156.2,7.93,22.85,-51.79
2005-06-02 03:00,51.03,154.4,8.12,22.03,-46.04
2005-06-02 04:00,48.98,165.3,8.25,12.40,-47.38
2005-06-02 05:00,31.09,146.3,8.21,17.23,-25.88
2005-06-02 06:00,17.60,145.3,8.15,10.02,-14.47
2005-06-02 07:00,11.15,140.7,8.02,7.06,-8.63
2005-06-02 08:00,13.49,34.2,7.96,7.58,11.16
2005-06-02 09:00,13.20,349.9,7.93,-2.32,12.99
2005-06-02 10:00,10.27,63.4,7.74,9.18,4.60
2005-06-02 11:00,6.75,22.9,7.58,2.63,6.21
2005-06-02 12:00,12.61,91.5,7.55,12.61,-0.33
2005-06-02 13:00,29.33,115.8,7.33,26.42,-12.75
2005-06-02 14:00,30.50,128.4,7.48,23.90,-18.95
2005-06-02 15:00,45.75,127.4,7.33,36.37,-27.76
2005-06-02 16:00,53.67,132.3,7.64,39.71,-36.11
2005-06-02 17:00,53.38,129.1,7.74,41.42,-33.68
2005-06-02 18:00,44.29,126.0,7.96,35.85,-26.00
2005-06-02 19:00,30.50,123.5,7.93,25.44,-16.83
2005-06-02 20:00,20.53,95.4,7.90,20.44,-1.92
2005-06-02 21:00,14.66,40.2,7.80,9.46,11.21
2005-06-02 22:00,17.89,54.9,7.68,14.64,10.28
2005-06-02 23:00,17.30,78.5,7.58,16.96,3.45
2005-06-03 00:00,13.20,93.3,7.58,13.18,-0.75
2005-06-03 01:00,26.40,113.6,7.61,24.18,-10.59
2005-06-03 02:00,29.62,132.6,7.55,21.79,-20.06
2005-06-03 03:00,36.37,136.9,7.45,24.87,-26.53
2005-06-03 04:00,47.22,134.7,7.45,33.54,-33.24
2005-06-03 05:00,46.05,122.1,7.33,39.01,-24.46
2005-06-03 06:00,40.77,114.7,7.23,37.04,-17.04
2005-06-03 07:00,36.96,104.2,7.26,35.83,-9.04
2005-06-03 08:00,28.74,102.4,7.26,28.07,-6.17
2005-06-03 09:00,28.45,83.1,7.29,28.24,3.44
2005-06-03 10:00,24.93,65.8,7.29,22.74,10.21
2005-06-03 11:00,24.05,79.5,7.36,23.65,4.37
2005-06-03 12:00,23.17,96.8,7.42,23.01,-2.73
2005-06-03 13:00,24.64,115.4,7.42,22.25,-10.57
2005-06-03 14:00,33.14,143.5,7.39,19.70,-26.65
2005-06-03 15:00,41.36,146.7,7.39,22.71,-34.56
2005-06-03 16:00,44.58,144.6,7.33,25.83,-36.33
2005-06-03 17:00,44.87,157.9,7.29,16.85,-41.59
2005-06-03 18:00,32.56,160.1,7.87,11.10,-30.60
2005-06-03 19:00,24.64,131.6,8.12,18.43,-16.35
2005-06-03 20:00,2.93,89.7,8.21,2.93,0.01
2005-06-03 21:00,17.60,62.3,8.12,15.58,8.18
2005-06-03 22:00,24.93,49.0,8.06,18.80,16.37
2005-06-03 23:00,23.76,73.6,7.64,22.79,6.72
2005-06-04 00:00,27.57,104.9,7.55,26.65,-7.07
2005-06-04 01:00,20.53,89.0,7.45,20.53,0.35
2005-06-04 02:00,36.66,123.1,7.45,30.70,-20.04
2005-06-04 03:00,38.13,126.3,7.42,30.73,-22.58
2005-06-04 04:00,53.67,131.9,7.39,39.93,-35.87
2005-06-04 05:00,57.49,131.2,7.36,43.24,-37.89
2005-06-04 06:00,49.57,129.1,7.29,38.46,-31.27
2005-06-04 07:00,45.17,124.9,7.23,37.05,-25.84
2005-06-04 08:00,35.49,110.1,7.20,33.32,-12.21
2005-06-04 09:00,27.57,83.8,7.20,27.41,3.00
2005-06-04 10:00,29.33,72.5,7.23,27.97,8.82
2005-06-04 11:00,17.89,67.2,7.20,16.50,6.92
2005-06-04 12:00,19.36,94.3,7.17,19.30,-1.45
2005-06-04 13:00,6.16,135.8,7.33,4.29,-4.42
2005-06-04 14:00,12.03,138.3,7.42,8.01,-8.97
2005-06-04 15:00,16.72,153.7,7.58,7.40,-14.99
2005-06-04 16:00,32.56,154.1,7.58,14.23,-29.28
2005-06-04 17:00,32.85,148.5,7.83,17.19,-28.00
2005-06-04 18:00,33.14,123.1,8.18,27.75,-18.12
2005-06-04 19:00,19.94,85.2,8.18,19.87,1.68
2005-06-04 20:00,24.64,88.0,8.18,24.62,0.87
2005-06-04 21:00,28.16,58.8,8.21,24.08,14.59
2005-06-04 22:00,36.08,44.7,8.28,25.39,25.63
2005-06-04 23:00,48.39,41.6,8.44,32.11,36.21
2005-06-05 00:00,41.65,39.8,8.44,26.67,31.99
2005-06-05 01:00,39.01,51.4,8.56,30.49,24.33
2005-06-05 02:00,24.64,74.3,8.34,23.71,6.68
2005-06-05 03:00,30.80,112.2,8.40,28.51,-11.66
2005-06-05 04:00,44.87,139.3,8.63,29.25,-34.03
2005-06-05 05:00,53.97,141.1,8.37,33.91,-41.98
2005-06-05 06:00,51.03,152.7,8.15,23.43,-45.34
2005-06-05 07:00,29.04,134.7,8.44,20.62,-20.44
2005-06-05 08:00,23.46,107.7,8.53,22.36,-7.12
2005-06-05 09:00,19.06,89.4,8.21,19.06,0.20
2005-06-05 10:00,19.06,66.9,8.25,17.53,7.48
2005-06-05 11:00,38.42,8.5,8.37,5.69,38.00
2005-06-05 12:00,28.16,24.0,8.12,11.45,25.72
2005-06-05 13:00,30.50,26.5,8.31,13.59,27.31
2005-06-05 14:00,29.33,40.9,8.56,19.19,22.18
2005-06-05 15:00,26.98,72.9,8.59,25.79,7.95
2005-06-05 16:00,22.58,127.0,8.56,18.03,-13.59
2005-06-05 17:00,33.44,143.9,8.59,19.71,-27.01
2005-06-05 18:00,33.14,138.6,8.47,21.91,-24.86
2005-06-05 19:00,34.32,164.6,9.23,9.10,-33.09
2005-06-05 20:00,25.52,137.6,8.78,17.22,-18.83
2005-06-05 21:00,7.04,136.9,9.10,4.81,-5.14
2005-06-05 22:00,4.69,64.1,9.19,4.22,2.05
2005-06-05 23:00,27.28,326.0,9.19,-15.25,22.62
2005-06-06 00:00,28.45,341.8,9.64,-8.87,27.03
2005-06-06 01:00,22.88,334.5,9.16,-9.87,20.64
2005-06-06 02:00,19.06,340.8,8.63,-6.28,18.00
2005-06-06 03:00,1.47,287.3,8.44,-1.40,0.44
2005-06-06 04:00,10.56,236.4,8.31,-8.79,-5.85
2005-06-06 05:00,10.85,223.0,8.18,-7.40,-7.94
2005-06-06 06:00,12.91,227.9,8.18,-9.58,-8.65
2005-06-06 07:00,5.57,127.7,8.12,4.41,-3.41
2005-06-06 08:00,3.81,102.7,7.99,3.72,-0.84
2005-06-06 09:00,23.17,34.9,8.15,13.25,19.01
2005-06-06 10:00,35.49,30.7,8.09,18.10,30.53
2005-06-06 11:00,53.38,14.5,8.06,13.36,51.68
2005-06-06 12:00,52.79,18.7,8.02,16.94,50.00
2005-06-06 13:00,42.24,30.0,8.09,21.10,36.59
2005-06-06 14:00,31.68,44.7,8.25,22.29,22.50
2005-06-06 15:00,19.36,49.0,8.21,14.60,12.71
2005-06-06 16:00,13.49,79.9,8.37,13.28,2.37
2005-06-06 17:00,14.08,137.2,8.44,9.56,-10.33
2005-06-06 18:00,21.70,143.5,8.44,12.90,-17.45
2005-06-06 19:00,24.05,135.8,8.40,16.77,-17.24
2005-06-06 20:00,14.66,131.2,8.15,11.03,-9.66
2005-06-06 21:00,12.32,151.3,7.99,5.92,-10.80
2005-06-06 22:00,7.63,319.3,7.93,-4.97,5.78
2005-06-06 23:00,29.33,3.2,7.90,1.66,29.28
2005-06-07 00:00,43.12,16.3,8.02,12.07,41.39
2005-06-07 01:00,36.37,21.2,8.09,13.14,33.91
2005-06-07 02:00,41.65,30.3,8.09,21.02,35.95
2005-06-07 03:00,31.09,52.1,8.02,24.54,19.09
2005-06-07 04:00,22.00,94.3,7.96,21.94,-1.65
2005-06-07 05:00,28.45,118.2,7.83,25.07,-13.45
2005-06-07 06:00,42.24,121.4,7.83,36.06,-21.99
2005-06-07 07:00,53.09,125.6,7.77,43.16,-30.90
2005-06-07 08:00,51.03,135.1,7.80,36.03,-36.15
2005-06-07 09:00,42.53,133.3,7.87,30.93,-29.19
2005-06-07 10:00,36.37,133.0,7.93,26.61,-24.80
2005-06-07 11:00,17.30,108.7,7.93,16.39,-5.56
2005-06-07 12:00,17.30,56.3,7.96,14.40,9.59
2005-06-07 13:00,26.69,49.7,7.93,20.34,17.28
2005-06-07 14:00,19.06,37.0,7.90,11.47,15.23
2005-06-07 15:00,9.97,53.5,7.93,8.02,5.93
2005-06-07 16:00,9.09,45.4,7.96,6.48,6.38
2005-06-07 17:00,4.99,191.0,7.99,-0.95,-4.89
2005-06-07 18:00,18.18,139.0,8.09,11.94,-13.72
2005-06-07 19:00,24.64,119.6,8.18,21.42,-12.18
2005-06-07 20:00,25.52,110.8,8.34,23.85,-9.08
2005-06-07 21:00,34.90,103.8,8.34,33.89,-8.33
2005-06-07 22:00,33.14,83.1,8.37,32.90,4.01
2005-06-07 23:00,35.20,91.1,8.47,35.19,-0.70
2005-06-08 00:00,19.94,68.6,8.47,18.57,7.26
2005-06-08 01:00,24.05,65.5,8.40,21.88,9.98
2005-06-08 02:00,23.76,62.7,8.34,21.10,10.91
2005-06-08 03:00,15.25,83.8,8.34,15.16,1.66
2005-06-08 04:00,5.87,179.7,8.34,0.03,-5.87
2005-06-08 05:00,28.16,158.3,8.37,10.41,-26.16
2005-06-08 06:00,27.57,172.4,8.44,3.66,-27.33
2005-06-08 07:00,34.90,171.3,8.37,5.27,-34.50
2005-06-08 08:00,22.00,155.1,8.34,9.25,-19.96